| time (UTC) | temp F | wind direction | speed MPH | gust MPH | rain 1hr in | rain 24hr in | rain mn in | humidity % | barometer mb |
| 20260510201702 | 70 | 119 | 0.0 | 0.0 | 0.00 | 0.19 | 0.00 | 73 | 1011.7 |
| 20260510195528 | 68 | 147 | 0.0 | 0.0 | 0.00 | 0.20 | 0.00 | 80 | 1011.6 |
| 20260510194534 | 67 | 148 | 0.0 | 0.0 | 0.00 | 0.21 | 0.00 | 80 | 1011.8 |
| 20260510192336 | 66 | 342 | 0.0 | 0.0 | 0.00 | 0.23 | 0.00 | 80 | 1012.1 |
| 20260510191346 | 67 | 25 | 0.0 | 0.0 | 0.00 | 0.25 | 0.00 | 78 | 1012.2 |
| 20260510190342 | 67 | 78 | 0.0 | 1.0 | 0.00 | 0.27 | 0.00 | 79 | 1012.1 |
| 20260510185321 | 66 | 136 | 0.0 | 0.0 | 0.00 | 0.28 | 0.00 | 82 | 1012.3 |
| 20260510184342 | 66 | 8 | 0.0 | 0.0 | 0.00 | 0.29 | 0.00 | 80 | 1012.3 |
| 20260510183346 | 67 | 72 | 0.0 | 2.0 | 0.00 | 0.30 | 0.00 | 77 | 1012.2 |
| 20260510182319 | 69 | 177 | 0.0 | 0.0 | 0.00 | 0.31 | 0.00 | 74 | 1012.1 |
| 20260510181325 | 69 | 163 | 0.0 | 0.0 | 0.00 | 0.32 | 0.00 | 75 | 1012.1 |
| 20260510180321 | 69 | 103 | 0.0 | 0.0 | 0.00 | 0.34 | 0.00 | 75 | 1012.1 |
| 20260510175333 | 68 | 172 | 0.0 | 0.0 | 0.00 | 0.34 | 0.00 | 78 | 1012.2 |
| 20260510174342 | 67 | 76 | 0.0 | 2.0 | 0.00 | 0.34 | 0.00 | 79 | 1012.4 |
| 20260510173313 | 66 | 124 | 0.0 | 2.0 | 0.00 | 0.34 | 0.00 | 81 | 1012.4 |
| 20260510172251 | 65 | 41 | 0.0 | 0.0 | 0.00 | 0.34 | 0.00 | 81 | 1012.4 |
| 20260510171251 | 64 | 342 | 0.0 | 2.0 | 0.00 | 0.34 | 0.00 | 83 | 1012.4 |
| 20260510170233 | 64 | 161 | 0.0 | 3.0 | 0.00 | 0.34 | 0.00 | 83 | 1012.5 |
| 20260510163017 | 62 | 70 | 0.0 | 2.0 | 0.00 | 0.34 | 0.00 | 87 | 1012.7 |
| 20260510162009 | 62 | 114 | 0.0 | 2.0 | 0.00 | 0.34 | 0.00 | 87 | 1012.7 |
| 20260510160939 | 62 | 139 | 0.0 | 0.0 | 0.00 | 0.34 | 0.00 | 87 | 1012.7 |
| 20260510155925 | 62 | 153 | 0.0 | 2.0 | 0.00 | 0.34 | 0.00 | 87 | 1012.7 |
| 20260510154923 | 61 | 93 | 0.0 | 1.0 | 0.00 | 0.34 | 0.00 | 87 | 1012.7 |
| 20260510151540 | 59 | 188 | 0.0 | 0.0 | 0.00 | 0.34 | 0.00 | 91 | 1013.1 |
| 20260510150525 | 59 | 195 | 0.0 | 0.0 | 0.00 | 0.34 | 0.00 | 90 | 1013.1 |
| 20260510145534 | 58 | 122 | 0.0 | 0.0 | 0.00 | 0.34 | 0.00 | 91 | 1013.2 |
| 20260510144511 | 58 | 121 | 0.0 | 0.0 | 0.00 | 0.34 | 0.00 | 91 | 1013.1 |
| 20260510143456 | 57 | 145 | 0.0 | 0.0 | 0.00 | 0.34 | 0.00 | 93 | 1012.9 |
| 20260510141314 | 57 | 141 | 0.0 | 0.0 | 0.00 | 0.34 | 0.00 | 95 | 1012.6 |
| 20260510140316 | 56 | 141 | 0.0 | 0.0 | 0.00 | 0.34 | 0.00 | 96 | 1012.6 |
| 20260510135314 | 55 | 143 | 0.0 | 0.0 | 0.00 | 0.34 | 0.00 | 96 | 1012.7 |
| 20260510134329 | 55 | 143 | 0.0 | 0.0 | 0.00 | 0.34 | 0.00 | 96 | 1012.6 |
| 20260510133257 | 55 | 143 | 0.0 | 0.0 | 0.00 | 0.34 | 0.00 | 96 | 1012.6 |
| 20260510132223 | 55 | 148 | 0.0 | 0.0 | 0.00 | 0.34 | 0.00 | 96 | 1012.4 |
| 20260510131216 | 55 | 180 | 0.0 | 0.0 | 0.00 | 0.34 | 0.00 | 97 | 1012.4 |
| 20260510130150 | 55 | 180 | 0.0 | 0.0 | 0.00 | 0.34 | 0.00 | 97 | 1012.4 |
| 20260510125147 | 55 | 179 | 0.0 | 0.0 | 0.00 | 0.34 | 0.00 | 98 | 1012.4 |
| 20260510123011 | 54 | 181 | 0.0 | 0.0 | 0.00 | 0.34 | 0.00 | 98 | 1012.1 |
| 20260510122021 | 54 | 51 | 0.0 | 0.0 | 0.00 | 0.35 | 0.00 | 98 | 1011.9 |
| 20260510121039 | 54 | 51 | 0.0 | 0.0 | 0.00 | 0.35 | 0.00 | 98 | 1011.9 |
| 20260510120040 | 54 | 51 | 0.0 | 0.0 | 0.00 | 0.35 | 0.00 | 98 | 1011.8 |
| 20260510115021 | 54 | 51 | 0.0 | 0.0 | 0.00 | 0.35 | 0.00 | 98 | 1011.9 |
| 20260510113950 | 53 | 163 | 0.0 | 0.0 | 0.00 | 0.35 | 0.00 | 98 | 1011.6 |
| 20260510112936 | 53 | 163 | 0.0 | 0.0 | 0.00 | 0.35 | 0.00 | 98 | 1011.6 |
| 20260510111904 | 53 | 163 | 0.0 | 0.0 | 0.00 | 0.35 | 0.00 | 98 | 1011.5 |
| 20260510110910 | 53 | 163 | 0.0 | 0.0 | 0.00 | 0.35 | 0.00 | 98 | 1011.5 |
| 20260510105904 | 53 | 163 | 0.0 | 0.0 | 0.00 | 0.35 | 0.00 | 99 | 1011.6 |
| 20260510104915 | 53 | 163 | 0.0 | 0.0 | 0.00 | 0.35 | 0.00 | 99 | 1011.5 |
| 20260510103854 | 52 | 163 | 0.0 | 0.0 | 0.00 | 0.35 | 0.00 | 99 | 1011.4 |
| 20260510102835 | 51 | 163 | 0.0 | 0.0 | 0.00 | 0.35 | 0.00 | 98 | 1011.3 |
| 20260510101858 | 51 | 163 | 0.0 | 0.0 | 0.00 | 0.35 | 0.00 | 98 | 1011.5 |
| 20260510100824 | 51 | 163 | 0.0 | 0.0 | 0.00 | 0.35 | 0.00 | 98 | 1011.4 |
| 20260510095837 | 52 | 163 | 0.0 | 0.0 | 0.00 | 0.35 | 0.00 | 98 | 1011.4 |
| 20260510094901 | 52 | 163 | 0.0 | 0.0 | 0.00 | 0.35 | 0.00 | 98 | 1011.5 |
| 20260510093912 | 51 | 163 | 0.0 | 0.0 | 0.00 | 0.35 | 0.00 | 98 | 1011.5 |
| 20260510092851 | 52 | 163 | 0.0 | 0.0 | 0.00 | 0.35 | 0.00 | 98 | 1011.6 |
| 20260510091857 | 52 | 163 | 0.0 | 0.0 | 0.00 | 0.35 | 0.00 | 98 | 1011.6 |
| 20260510090830 | 52 | 163 | 0.0 | 0.0 | 0.00 | 0.35 | 0.00 | 98 | 1011.6 |
| 20260510085804 | 52 | 152 | 0.0 | 0.0 | 0.00 | 0.35 | 0.00 | 98 | 1011.7 |
| 20260510084745 | 52 | 205 | 0.0 | 2.0 | 0.00 | 0.35 | 0.00 | 98 | 1011.7 |
| 20260510083748 | 52 | 338 | 0.0 | 0.0 | 0.00 | 0.35 | 0.00 | 98 | 1011.7 |
| 20260510082804 | 53 | 337 | 0.0 | 0.0 | 0.00 | 0.35 | 0.00 | 98 | 1011.7 |
| 20260510081735 | 53 | 337 | 0.0 | 0.0 | 0.00 | 0.35 | 0.00 | 98 | 1011.3 |
| 20260510080722 | 53 | 338 | 0.0 | 0.0 | 0.00 | 0.35 | 0.00 | 98 | 1010.9 |
| 20260510075709 | 53 | 337 | 0.0 | 0.0 | 0.00 | 0.35 | 0.00 | 98 | 1010.7 |
| 20260510074702 | 53 | 337 | 0.0 | 0.0 | 0.00 | 0.35 | 0.00 | 98 | 1010.7 |
| 20260510073728 | 53 | 338 | 0.0 | 0.0 | 0.00 | 0.35 | 0.00 | 98 | 1010.7 |
| 20260510072706 | 53 | 337 | 0.0 | 0.0 | 0.00 | 0.35 | 0.00 | 98 | 1010.8 |
| 20260510071713 | 53 | 338 | 0.0 | 0.0 | 0.00 | 0.36 | 0.00 | 98 | 1010.9 |
| 20260510070731 | 53 | 337 | 0.0 | 0.0 | 0.00 | 0.36 | 0.00 | 98 | 1010.8 |
| 20260510064537 | 53 | 337 | 0.0 | 0.0 | 0.00 | 0.36 | 0.00 | 98 | 1010.8 |
| 20260510063547 | 53 | 337 | 0.0 | 0.0 | 0.00 | 0.36 | 0.00 | 98 | 1010.8 |
| 20260510062536 | 53 | 337 | 0.0 | 0.0 | 0.00 | 0.36 | 0.00 | 98 | 1010.7 |
| 20260510061552 | 53 | 337 | 0.0 | 0.0 | 0.00 | 0.36 | 0.00 | 98 | 1010.5 |
| 20260510060611 | 53 | 337 | 0.0 | 0.0 | 0.00 | 0.36 | 0.00 | 98 | 1010.6 |
| 20260510055624 | 53 | 337 | 0.0 | 0.0 | 0.00 | 0.36 | 0.00 | 98 | 1010.5 |
| 20260510053517 | 53 | 337 | 0.0 | 0.0 | 0.00 | 0.36 | 0.00 | 98 | 1010.8 |
| 20260510052540 | 53 | 338 | 0.0 | 0.0 | 0.00 | 0.36 | 0.00 | 98 | 1010.8 |
| 20260510051524 | 53 | 336 | 0.0 | 0.0 | 0.00 | 0.36 | 0.00 | 98 | 1010.9 |
| 20260510050503 | 53 | 335 | 0.0 | 0.0 | 0.00 | 0.36 | 0.00 | 98 | 1010.8 |
| 20260510045502 | 53 | 337 | 0.0 | 0.0 | 0.00 | 0.36 | 0.00 | 98 | 1010.8 |
| 20260510044429 | 53 | 337 | 0.0 | 0.0 | 0.00 | 0.36 | 0.00 | 98 | 1010.7 |
| 20260510043415 | 53 | 338 | 0.0 | 0.0 | 0.00 | 0.36 | 0.00 | 98 | 1010.8 |
| 20260510042416 | 53 | 337 | 0.0 | 0.0 | 0.00 | 0.36 | 0.00 | 98 | 1010.8 |
| 20260510041434 | 53 | 337 | 0.0 | 0.0 | 0.00 | 0.36 | 0.00 | 98 | 1010.7 |
| 20260510040421 | 53 | 337 | 0.0 | 0.0 | 0.00 | 0.36 | 0.00 | 98 | 1010.5 |
| 20260510034333 | 54 | 335 | 0.0 | 0.0 | 0.00 | 0.36 | 0.37 | 98 | 1010.3 |
| 20260510033344 | 54 | 335 | 0.0 | 0.0 | 0.00 | 0.36 | 0.37 | 98 | 1010.4 |
| 20260510032337 | 54 | 335 | 0.0 | 0.0 | 0.00 | 0.36 | 0.37 | 98 | 1010.2 |
| 20260510031328 | 54 | 335 | 0.0 | 0.0 | 0.00 | 0.36 | 0.37 | 98 | 1010.4 |
| 20260510030259 | 54 | 335 | 0.0 | 0.0 | 0.00 | 0.36 | 0.37 | 98 | 1010.5 |
| 20260510024156 | 54 | 336 | 0.0 | 0.0 | 0.00 | 0.36 | 0.37 | 98 | 1010.6 |
| 20260510023125 | 54 | 335 | 0.0 | 0.0 | 0.00 | 0.36 | 0.37 | 98 | 1010.7 |
| 20260510022145 | 54 | 335 | 0.0 | 0.0 | 0.00 | 0.36 | 0.37 | 98 | 1010.6 |
| 20260510020014 | 54 | 340 | 0.0 | 0.0 | 0.00 | 0.36 | 0.37 | 98 | 1010.6 |
| 20260510014957 | 54 | 340 | 0.0 | 0.0 | 0.00 | 0.36 | 0.37 | 98 | 1010.4 |
| 20260510012834 | 54 | 340 | 0.0 | 0.0 | 0.00 | 0.36 | 0.37 | 98 | 1010.2 |
| 20260510011804 | 54 | 340 | 0.0 | 0.0 | 0.00 | 0.36 | 0.37 | 98 | 1010.0 |
| 20260510010731 | 54 | 340 | 0.0 | 0.0 | 0.00 | 0.36 | 0.37 | 97 | 1010.1 |
| 20260510005709 | 54 | 339 | 0.0 | 0.0 | 0.00 | 0.36 | 0.37 | 97 | 1010.0 |
| 20260510004726 | 55 | 340 | 0.0 | 0.0 | 0.00 | 0.36 | 0.37 | 97 | 1010.0 |
| 20260510003726 | 55 | 340 | 0.0 | 0.0 | 0.00 | 0.36 | 0.37 | 98 | 1009.9 |
| 20260510002658 | 55 | 340 | 0.0 | 0.0 | 0.00 | 0.36 | 0.37 | 98 | 1009.9 |
| 20260510001623 | 55 | 340 | 0.0 | 0.0 | 0.00 | 0.36 | 0.37 | 97 | 1009.8 |
| 20260509235425 | 56 | 340 | 0.0 | 0.0 | 0.00 | 0.36 | 0.37 | 97 | 1009.8 |
| 20260509233324 | 56 | 340 | 0.0 | 0.0 | 0.00 | 0.36 | 0.37 | 97 | 1009.7 |
| 20260509231149 | 56 | 340 | 0.0 | 0.0 | 0.05 | 0.36 | 0.37 | 97 | 1009.7 |
| 20260509230209 | 56 | 340 | 0.0 | 0.0 | 0.10 | 0.36 | 0.37 | 97 | 1009.4 |
| 20260509225150 | 56 | 116 | 0.0 | 0.0 | 0.25 | 0.35 | 0.35 | 97 | 1010.5 |
| 20260509224155 | 57 | 117 | 0.0 | 0.0 | 0.05 | 0.32 | 0.32 | 97 | 1010.3 |
| 20260509223145 | 57 | 117 | 0.0 | 0.0 | 0.13 | 0.31 | 0.31 | 97 | 1010.4 |
| 20260509222203 | 57 | 117 | 0.0 | 0.0 | 0.38 | 0.29 | 0.28 | 97 | 1010.5 |
| 20260509221219 | 57 | 115 | 0.0 | 0.0 | 0.00 | 0.24 | 0.24 | 97 | 1010.7 |
| 20260509220227 | 57 | 253 | 0.0 | 1.0 | 0.00 | 0.23 | 0.23 | 97 | 1010.0 |
| 20260509214133 | 57 | 167 | 0.0 | 0.0 | 0.00 | 0.23 | 0.23 | 96 | 1010.4 |
| 20260509213149 | 57 | 166 | 0.0 | 0.0 | 0.00 | 0.21 | 0.21 | 96 | 1010.6 |
| 20260509211027 | 57 | 166 | 0.0 | 0.0 | 0.04 | 0.21 | 0.21 | 96 | 1010.8 |
| 20260509205955 | 57 | 166 | 0.0 | 0.0 | 0.06 | 0.21 | 0.21 | 96 | 1010.6 |
| 20260509205015 | 57 | 167 | 0.0 | 0.0 | 0.09 | 0.21 | 0.21 | 96 | 1010.6 |
| 20260509204015 | 57 | 123 | 0.0 | 0.0 | 0.06 | 0.19 | 0.19 | 96 | 1010.9 |
| 20260509203031 | 57 | 123 | 0.0 | 1.0 | 0.00 | 0.18 | 0.18 | 96 | 1011.0 |
| 20260509202041 | 57 | 139 | 0.0 | 2.0 | 0.00 | 0.16 | 0.17 | 96 | 1011.0 |